Observations for Trim Patrick St
| Time | AQI | Temp °C | Hum % | Pres Pa | CO μg/m³ | H₂S μg/m³ | NO μg/m³ | NO₂ μg/m³ | O₃ μg/m³ | SO₂ μg/m³ | PM1 μg/m³ | PM2.5 μg/m³ | PM10 μg/m³ |
|---|---|---|---|---|---|---|---|---|---|---|---|---|---|
| Monday 3 August 2026 | |||||||||||||
| 01:14 | 2 | 15.1 | 83 | 38,460 | 0.19 | 1.09 | 1.93 | 23.44 | 25.7 | 0 | 7.14 | 11.3 | 12.43 |
| 01:13 | 2 | 15.1 | 82 | 38,460 | 0.18 | 0.67 | 1.92 | 22.92 | 23.64 | 0 | 8 | 12.01 | 13.21 |
| 01:12 | 2 | 15.1 | 82 | 38,460 | 0.17 | 0.99 | 1.82 | 23.16 | 28.38 | 0 | 5.43 | 9.92 | 10.91 |
| 01:11 | 2 | 15.1 | 82 | 38,460 | 0.19 | 1.48 | 1.76 | 24.39 | 22.27 | 0 | 7.14 | 12.01 | 13.21 |
| 01:10 | 2 | 15.1 | 82 | 38,460 | 0.18 | 0.18 | 1.79 | 25.07 | 31.14 | 0 | 8.86 | 12.71 | 13.98 |
| 01:08 | 2 | 15.1 | 82 | 38,460 | 0.17 | 1.84 | 1.81 | 28.58 | 28.26 | 0 | 8 | 12.03 | 13.23 |
| 01:07 | 2 | 15.1 | 82 | 38,460 | 0.19 | 0.73 | 1.72 | 21.79 | 23.89 | 0 | 7.14 | 9.95 | 10.94 |
| 01:06 | 2 | 15.1 | 82 | 38,460 | 0.17 | 0.8 | 1.87 | 27.1 | 27.31 | 0 | 8 | 12.04 | 13.24 |
| 01:05 | 2 | 15.1 | 82 | 38,460 | 0.19 | 0.18 | 1.91 | 21.25 | 27.29 | 0 | 7.14 | 10.64 | 11.7 |
| 01:04 | 2 | 15.1 | 82 | 38,460 | 0.18 | 2.29 | 1.76 | 21.25 | 29.21 | 0 | 7.14 | 11.34 | 12.47 |
| 01:03 | 2 | 15.2 | 82 | 38,460 | 0.18 | 2 | 1.81 | 34.58 | 18.89 | 0 | 8.86 | 11.34 | 12.47 |
| 01:02 | 2 | 15.2 | 82 | 38,460 | 0.18 | 0 | 1.78 | 18.11 | 24.31 | 0 | 5.43 | 9.24 | 10.17 |
| 00:59 | 2 | 15.2 | 82 | 38,460 | 0.17 | 0 | 1.75 | 16.35 | 24.4 | 0 | 8 | 12.74 | 14.01 |
| 00:56 | 2 | 15.2 | 82 | 38,460 | 0.18 | 0 | 1.74 | 15.38 | 25.83 | 0 | 6.29 | 9.95 | 10.95 |
| 00:55 | 2 | 15.2 | 82 | 38,460 | 0.16 | 0 | 1.76 | 23.68 | 22.26 | 0 | 7.14 | 12.74 | 14.02 |
| 00:48 | 2 | 15.3 | 82 | 38,460 | 0.17 | 0.2 | 1.93 | 20.38 | 24.95 | 0 | 7.14 | 10.69 | 11.76 |
| 00:47 | 2 | 15.3 | 82 | 38,460 | 0.16 | 0.28 | 1.93 | 26.81 | 29.57 | 0 | 7.14 | 11.39 | 12.53 |
| 00:46 | 2 | 15.3 | 82 | 38,460 | 0.16 | 0 | 1.85 | 20.98 | 25.26 | 0 | 6.29 | 12.08 | 13.29 |
| 00:45 | 2 | 15.3 | 82 | 38,460 | 0.17 | 0 | 1.83 | 27.01 | 27.96 | 0 | 7.14 | 11.4 | 12.53 |
| 00:44 | 2 | 15.3 | 82 | 38,460 | 0.17 | 0 | 1.67 | 18.79 | 22.77 | 0 | 7.14 | 12.09 | 13.3 |